Location: Emory University Observatory
(33.7903°N, 84.3267°W)
Time: 18:33:17
(UTC-04:00)

N. Korean satellite - Pass Details

Date: 12 October 2017
Orbit: 459 x 517 km, 97.2° (Epoch: 23 October)

Event Time Altitude Azimuth Distance (km) Brightness Sun altitude
Rises 20:07:39 0° 183° (S) 2,566 10.3 -13.4°
Reaches altitude 10° 20:09:50 10° 191° (S) 1,678 9.4 -13.9°
Maximum altitude 20:13:14 39° 261° (W) 736 8.1 -14.6°
Drops below altitude 10° 20:16:36 10° 332° (NNW) 1,658 9.6 -15.3°
Sets 20:18:44 0° 340° (NNW) 2,531 10.5 -15.7°
